Regional Weather Roundup
Issued by NWS

Home | Current Version | Previous Version | Text Only | Print | Product List | Glossary On
Versions: 1 2 3 4 5 6 7 8 9 10 11 12 13 14 15 16 17 18 19 20 21 22 23 24 25 26 27 28 29 30 31 32 33 34 35 36 37 38 39 40 41 42 43 44 45 46 47 48 49 50
000
ASUS42 KKEY 212310
RWRKEY

FLORIDA REGIONAL WEATHER ROUNDUP FOR THE FLORIDA KEYS
NATIONAL WEATHER SERVICE KEY WEST FLORIDA
700 PM EDT THU AUG 21 2014

...SOUTH FLORIDA AND THE KEYS...

CITY           SKY/WX    TMP DP  RH WIND       PRES   REMARKS
FORT MYERS     PTSUNNY   83  72  69 NW6       30.05R
SW REGIONAL AP MOSUNNY   83  70  64 CALM      30.06R
NAPLES         PTSUNNY   82  75  79 CALM      30.04S
MIAMI          MOSUNNY   88  73  61 E9        30.06F HX  95
WEST KENDALL   MOSUNNY   88  74  63 E8        30.05F HX  96
HOMESTEAD      SUNNY     88  75  67 E7        30.05F HX  97
MARATHON       MOSUNNY   87  78  74 SE7       30.04F HX 100
BOCA CHICA NAS PTSUNNY   88  75  65 E12       30.03F HX  97
KEY WEST INTL  MOSUNNY   88  76  67 VRB6      30.04F HX  99

...INTERNATIONAL WEATHER...

CITY           SKY/WX    TMP DP  RH WIND       PRES   REMARKS
NASSAU BAHAMAS PTCLDY    86  75  70 E7        30.06S HX  95
CANCUN MEXICO  PTSUNNY   86  77  74 E7        29.98S HX  97
COZUMEL MEXICO PTSUNNY   84  77  79 NE14      29.97S HX  94

ADJACENT COASTAL WATERS...

STATION/POSITION TIME  SKY/WX   TEMP    WIND        PRES    WAVE
                                AIR SEA DIR/SP/G            HT/PER
                 (UTC)          (F)     (DEG/KT/KT) (MB)    (FT/S)
PULASKI SHOAL LI 2300            86      90/  7/  8 1017.1F
SAND KEY         2237            86      90/ 10/ 12 1017.0F
SOMBRERO KEY     2300            88     110/ 11/ 12 1017.8F
LONG KEY         2200            87 91  110/  7/  8 1018.5F
MOLASSES REEF    2300            85 88  110/  8/  9 1017.8S
FOWEY ROCKS      2300            85 88   80/  7/  8 1018.4F
Buoy 42080       NOT AVBL

$$



USA.gov is the U.S. government's official web portal to all federal, state and local government web resources and services.